{"data":{"norad_id":61894,"epoch":"2026-05-25T05:05:49.807392Z","epoch_age_seconds":49929,"freshness":"FRESH","line1":"1 61894U 24205A   26145.21238203  .00007765  00000+0  46073-3 0  9997","line2":"2 61894  97.4134 215.9821 0015438 232.4733 127.5095 15.11511329 84731","mean_motion":15.11511329,"eccentricity":0.0015438,"inclination_deg":97.4134,"raan_deg":215.9821,"arg_perigee_deg":232.4733,"mean_anomaly_deg":127.5095,"bstar":0.00046073,"rev_number":8473,"period_min":95.268885675683,"perigee_km":520.92299578617,"apogee_km":542.25746958981,"semimajor_km":6909.727232688,"source":"CELESTRAK","updated_at":"2026-05-25T13:38:02.601635Z"}}